When you browse on this site, cookies collect data to enhance your experience and personalize the content and advertising you see.
Visit our Privacy Policy to learn more. By continuing to use the site, you agree to this use of cookies and data.
  • In Portugal
  • List of Countries
  • For 7 days
  • Water Temperature
  • Satellite Maps
  • Weather Map
  • Weather Widgets
  • user-avatar
    Login

    Hourly Weather Cahur

    Today, 19 June, Wednesday

    Time Temperature Precipitation Wind Pressure Humidity
    00:00 +10°C° 0.1 mm 0 mps 606 mmHg 89%
    01:00 +11°C° 0 mm 1 mps 606 mmHg 89%
    02:00 +11°C° 0 mm 1 mps 606 mmHg 89%
    03:00 +11°C° 0 mm 1 mps 606 mmHg 88%
    04:00 +12°C° 0 mm 1 mps 606 mmHg 85%
    05:00 +12°C° 0 mm 0 mps 607 mmHg 82%
    06:00 +14°C° 0 mm 0 mps 608 mmHg 79%
    07:00 +16°C° 0.4 mm 1 mps 608 mmHg 77%
    08:00 +18°C° 0.4 mm 1 mps 608 mmHg 76%
    09:00 +18°C° 0.4 mm 2 mps 609 mmHg 75%
    10:00 +18°C° 1.4 mm 2 mps 609 mmHg 76%
    11:00 +18°C° 1.4 mm 2 mps 609 mmHg 77%
    12:00 +18°C° 1.4 mm 2 mps 609 mmHg 77%
    13:00 +17°C° 2.2 mm 2 mps 608 mmHg 79%
    14:00 +18°C° 2.2 mm 1 mps 608 mmHg 80%
    15:00 +18°C° 2.2 mm 1 mps 608 mmHg 81%
    16:00 +16°C° 1 mm 1 mps 608 mmHg 82%
    17:00 +16°C° 1 mm 1 mps 607 mmHg 82%
    18:00 +15°C° 1 mm 0 mps 607 mmHg 83%
    19:00 +15°C° 0.1 mm 1 mps 607 mmHg 83%
    20:00 +14°C° 0.1 mm 1 mps 607 mmHg 84%
    21:00 +13°C° 0.1 mm 1 mps 606 mmHg 85%
    22:00 +13°C° 0 mm 1 mps 606 mmHg 85%
    23:00 +12°C° 0 mm 1 mps 606 mmHg 85%

    Tomorrow, 20 June, Thursday

    Time Temperature Precipitation Wind Pressure Humidity
    00:00 +12°C° 0 mm 1 mps 606 mmHg 84%
    01:00 +12°C° 0 mm 1 mps 606 mmHg 85%
    02:00 +11°C° 0 mm 1 mps 606 mmHg 87%
    03:00 +11°C° 0 mm 1 mps 605 mmHg 88%
    04:00 +12°C° 0 mm 1 mps 606 mmHg 85%
    05:00 +14°C° 0 mm 1 mps 607 mmHg 83%
    06:00 +15°C° 0 mm 1 mps 607 mmHg 81%
    07:00 +16°C° 0.1 mm 1 mps 608 mmHg 77%
    08:00 +18°C° 0.1 mm 1 mps 608 mmHg 73%
    09:00 +18°C° 0.1 mm 2 mps 609 mmHg 69%
    10:00 +19°C° 0.7 mm 2 mps 609 mmHg 68%
    11:00 +19°C° 0.7 mm 2 mps 609 mmHg 68%
    12:00 +20°C° 0.7 mm 2 mps 609 mmHg 67%
    13:00 +20°C° 0.7 mm 2 mps 608 mmHg 65%
    14:00 +20°C° 0.7 mm 2 mps 608 mmHg 63%
    15:00 +20°C° 0.7 mm 2 mps 608 mmHg 61%
    16:00 +20°C° 0.2 mm 2 mps 608 mmHg 63%
    17:00 +19°C° 0.2 mm 2 mps 608 mmHg 65%
    18:00 +19°C° 0.2 mm 2 mps 607 mmHg 67%
    19:00 +18°C° 0 mm 1 mps 607 mmHg 72%
    20:00 +14°C° 0 mm 1 mps 606 mmHg 76%
    21:00 +12°C° 0 mm 1 mps 606 mmHg 81%
    22:00 +12°C° 0 mm 1 mps 606 mmHg 81%
    23:00 +12°C° 0 mm 1 mps 606 mmHg 80%

    Day after tomorrow, 21 June, Friday

    Time Temperature Precipitation Wind Pressure Humidity
    00:00 +12°C° 0 mm 1 mps 606 mmHg 80%
    01:00 +12°C° 0 mm 1 mps 606 mmHg 80%
    02:00 +12°C° 0 mm 1 mps 605 mmHg 80%
    03:00 +12°C° 0 mm 1 mps 605 mmHg 80%
    04:00 +13°C° 0 mm 1 mps 606 mmHg 79%
    05:00 +14°C° 0 mm 1 mps 607 mmHg 77%
    06:00 +15°C° 0 mm 1 mps 607 mmHg 76%
    07:00 +16°C° 0.1 mm 2 mps 608 mmHg 71%
    08:00 +17°C° 0.1 mm 2 mps 608 mmHg 67%
    09:00 +19°C° 0.1 mm 2 mps 609 mmHg 62%
    10:00 +19°C° 0.7 mm 2 mps 609 mmHg 63%
    11:00 +19°C° 0.7 mm 2 mps 609 mmHg 64%
    12:00 +19°C° 0.7 mm 2 mps 609 mmHg 65%
    13:00 +19°C° 1 mm 2 mps 609 mmHg 66%
    14:00 +19°C° 1 mm 2 mps 609 mmHg 67%
    15:00 +19°C° 1 mm 2 mps 609 mmHg 69%
    16:00 +18°C° 0.6 mm 2 mps 609 mmHg 72%
    17:00 +19°C° 0.6 mm 1 mps 608 mmHg 75%
    18:00 +18°C° 0.6 mm 1 mps 608 mmHg 78%
    19:00 +16°C° 0 mm 1 mps 608 mmHg 81%
    20:00 +14°C° 0 mm 1 mps 608 mmHg 84%
    21:00 +13°C° 0 mm 1 mps 607 mmHg 88%
    22:00 +13°C° 0 mm 1 mps 607 mmHg 87%
    23:00 +12°C° 0 mm 1 mps 607 mmHg 86%

    22 June, Saturday

    Time Temperature Precipitation Wind Pressure Humidity
    00:00 +12°C° 0 mm 1 mps 607 mmHg 85%
    01:00 +11°C° 0 mm 1 mps 607 mmHg 84%
    02:00 +11°C° 0 mm 1 mps 606 mmHg 83%
    03:00 +11°C° 0 mm 1 mps 606 mmHg 81%
    04:00 +12°C° 0 mm 1 mps 607 mmHg 77%
    05:00 +13°C° 0 mm 1 mps 608 mmHg 74%
    06:00 +15°C° 0 mm 1 mps 609 mmHg 70%
    07:00 +16°C° 0 mm 1 mps 609 mmHg 66%
    08:00 +18°C° 0 mm 2 mps 610 mmHg 63%
    09:00 +19°C° 0 mm 2 mps 611 mmHg 60%
    10:00 +20°C° 0.7 mm 2 mps 611 mmHg 62%
    11:00 +20°C° 0.7 mm 2 mps 611 mmHg 63%
    12:00 +21°C° 0.7 mm 2 mps 611 mmHg 65%
    13:00 +20°C° 1.3 mm 2 mps 610 mmHg 66%
    14:00 +20°C° 1.3 mm 2 mps 610 mmHg 68%
    15:00 +21°C° 1.3 mm 1 mps 610 mmHg 71%
    16:00 +20°C° 1.1 mm 1 mps 609 mmHg 72%
    17:00 +20°C° 1.1 mm 1 mps 609 mmHg 73%
    18:00 +20°C° 1.1 mm 1 mps 609 mmHg 74%
    19:00 +18°C° 0.3 mm 1 mps 609 mmHg 77%
    20:00 +16°C° 0.3 mm 1 mps 609 mmHg 81%
    21:00 +13°C° 0.3 mm 0 mps 608 mmHg 84%
    22:00 +14°C° 0 mm 1 mps 608 mmHg 84%
    23:00 +13°C° 0 mm 1 mps 608 mmHg 85%

    23 June, Sunday

    Time Temperature Precipitation Wind Pressure Humidity
    00:00 +13°C° 0 mm 1 mps 608 mmHg 85%
    01:00 +13°C° 0 mm 1 mps 608 mmHg 84%
    02:00 +13°C° 0 mm 1 mps 607 mmHg 84%
    03:00 +13°C° 0 mm 1 mps 607 mmHg 83%
    04:00 +14°C° 0 mm 1 mps 608 mmHg 79%
    05:00 +16°C° 0 mm 1 mps 609 mmHg 75%
    06:00 +18°C° 0 mm 1 mps 610 mmHg 72%
    07:00 +19°C° 0.2 mm 1 mps 610 mmHg 69%
    08:00 +20°C° 0.2 mm 1 mps 611 mmHg 66%
    09:00 +21°C° 0.2 mm 2 mps 611 mmHg 64%
    10:00 +21°C° 1.4 mm 2 mps 611 mmHg 64%
    11:00 +21°C° 1.4 mm 2 mps 611 mmHg 64%
    12:00 +23°C° 1.4 mm 2 mps 611 mmHg 64%
    13:00 +23°C° 1 mm 2 mps 611 mmHg 64%
    14:00 +23°C° 1 mm 2 mps 611 mmHg 64%
    15:00 +23°C° 1 mm 1 mps 611 mmHg 64%
    16:00 +22°C° 0.7 mm 1 mps 610 mmHg 66%
    17:00 +22°C° 0.7 mm 1 mps 610 mmHg 68%
    18:00 +21°C° 0.7 mm 1 mps 610 mmHg 70%
    19:00 +19°C° 0.2 mm 1 mps 609 mmHg 74%
    20:00 +18°C° 0.2 mm 1 mps 609 mmHg 77%
    21:00 +15°C° 0.2 mm 1 mps 608 mmHg 81%
    22:00 +14°C° 0 mm 1 mps 608 mmHg 81%
    23:00 +14°C° 0 mm 1 mps 608 mmHg 81%

    24 June, Monday

    Time Temperature Precipitation Wind Pressure Humidity
    00:00 +14°C° 0 mm 1 mps 608 mmHg 81%
    01:00 +14°C° 0 mm 1 mps 608 mmHg 81%
    02:00 +14°C° 0 mm 1 mps 608 mmHg 81%
    03:00 +13°C° 0 mm 1 mps 608 mmHg 81%
    04:00 +15°C° 0 mm 1 mps 608 mmHg 79%
    05:00 +16°C° 0 mm 1 mps 609 mmHg 77%
    06:00 +19°C° 0 mm 1 mps 610 mmHg 74%
    07:00 +20°C° 0.6 mm 1 mps 610 mmHg 72%
    08:00 +21°C° 0.6 mm 1 mps 610 mmHg 69%
    09:00 +21°C° 0.6 mm 2 mps 611 mmHg 66%
    10:00 +21°C° 1.8 mm 2 mps 611 mmHg 65%
    11:00 +21°C° 1.8 mm 2 mps 611 mmHg 65%
    12:00 +23°C° 1.8 mm 2 mps 611 mmHg 64%
    13:00 +23°C° 1.4 mm 2 mps 611 mmHg 63%
    14:00 +23°C° 1.4 mm 2 mps 611 mmHg 63%
    15:00 +23°C° 1.4 mm 2 mps 610 mmHg 62%
    16:00 +21°C° 1.3 mm 2 mps 610 mmHg 65%
    17:00 +21°C° 1.3 mm 2 mps 610 mmHg 68%
    18:00 +21°C° 1.3 mm 1 mps 610 mmHg 71%
    19:00 +19°C° 0.5 mm 1 mps 609 mmHg 75%
    20:00 +18°C° 0.5 mm 1 mps 609 mmHg 79%
    21:00 +15°C° 0.5 mm 1 mps 609 mmHg 82%
    22:00 +15°C° 0.2 mm 1 mps 609 mmHg 82%
    23:00 +15°C° 0.2 mm 1 mps 609 mmHg 82%
    Show more